This is the latest recevied weather packets stored in our database for station/object VE3VGJ. If no packets are shown the sender has not sent any weather packets the latest 10 day(s).
| Time | Temp. | Humidity | Pressure | Rain* | Wind** | Luminosity | Snow |
|---|---|---|---|---|---|---|---|
| 1777759502 | 6.67° C | 63% | 1014 hPa | 0 mm | - | 148 W/m² | - |
| 1777759199 | 6.67° C | 63% | 1013.9 hPa | 0 mm | - | 147 W/m² | - |
| 1777758897 | 6.11° C | 64% | 1013.9 hPa | 0 mm | - | 158 W/m² | - |
| 1777758594 | 6.11° C | 64% | 1014 hPa | 0 mm | - | 168 W/m² | - |
| 1777758291 | 6.11° C | 64% | 1014.1 hPa | 0 mm | - | 124 W/m² | - |
| 1777757988 | 5.56° C | 65% | 1013.9 hPa | 0 mm | - | 80 W/m² | - |
| 1777757684 | 5.56° C | 65% | 1014.2 hPa | 0 mm | - | 64 W/m² | - |
| 1777757383 | 5.56° C | 66% | 1014 hPa | 0 mm | - | 57 W/m² | - |
| 1777757082 | 5.56° C | 67% | 1014 hPa | 0 mm | - | 49 W/m² | - |
| 1777756779 | 5.56° C | 66% | 1014.3 hPa | 0 mm | - | 44 W/m² | - |
| 1777756474 | 6.11° C | 65% | 1014.2 hPa | 0 mm | - | 50 W/m² | - |
| 1777756172 | 6.11° C | 64% | 1014.1 hPa | 0 mm | - | 85 W/m² | - |
| 1777755868 | 6.67° C | 62% | 1014.1 hPa | 0 mm | - | 124 W/m² | - |
| 1777755566 | 6.67° C | 61% | 1014.2 hPa | 0 mm | - | 129 W/m² | - |
| 1777755261 | 6.67° C | 62% | 1014.2 hPa | 0 mm | - | 133 W/m² | - |
| 1777754959 | 6.11° C | 63% | 1014 hPa | 0 mm | - | 132 W/m² | - |
| 1777754656 | 6.11° C | 65% | 1014.1 hPa | 0 mm | - | 138 W/m² | - |
| 1777754354 | 6.11° C | 64% | 1014.1 hPa | 0 mm | - | 131 W/m² | - |
| 1777754051 | 6.67° C | 63% | 1014 hPa | 0 mm | - | 102 W/m² | - |
| 1777753746 | 6.11° C | 63% | 1013.9 hPa | 0 mm | - | 93 W/m² | - |
| 1777753444 | 6.67° C | 63% | 1014 hPa | 0 mm | - | 81 W/m² | - |
| 1777753142 | 6.67° C | 62% | 1013.9 hPa | 0 mm | - | 68 W/m² | - |
| 1777752837 | 6.67° C | 62% | 1014.1 hPa | 0 mm | - | 64 W/m² | - |
| 1777752534 | 6.67° C | 60% | 1013.9 hPa | 0 mm | - | 80 W/m² | - |
| 1777752230 | 7.22° C | 59% | 1014 hPa | 0 mm | - | 128 W/m² | - |
* Rain latest hour (hover to see other rain measurements)
** Current wind speed in m/s (hover to see current wind gust speed)